Hurghada, Egypt

7:15 PM EET on March 23, 2017 (GMT +0200)
Hurghada International

Weather History for HEGN - January, 2013

Change the Weather History Date:

Wednesday, January 2, 2013

  Actual Average Record
Temperature  
Mean Temperature 64 °F -  
Max Temperature 73 °F 68 °F 77 °F (2006)
Min Temperature 55 °F 52 °F 35 °F (2002)
Degree Days  
Heating Degree Days 1    
Growing Degree Days 14 (Base 50)    
Moisture  
Dew Point 42 °F    
Average Humidity 46    
Maximum Humidity 63    
Minimum Humidity 24    
Precipitation  
Precipitation 0.00 in - - ()
Sea Level Pressure  
Sea Level Pressure 30.14 in    
Wind  
Wind Speed 13 mph ()    
Max Wind Speed 21 mph    
Max Gust Speed -    
Visibility 6.0 miles    
Events      
Averages and records for this station are not official NWS values.
T = Trace of Precipitation, MM = Missing Value Source: Averaged Metar Reports

Daily Weather History Graph

Daily Weather History Graph

Search for Another Location

Airport or City:

Trip Planner

Search our weather history database for the weather conditions in past years. The results will help you decide how hot, cold, wet, or windy it might be!

Date:

Astronomy

Jan. 02, 2013 Rise Set
Actual Time 6:34 AM EET 5:03 PM EET
Civil Twilight 6:09 AM EET 5:28 PM EET
Nautical Twilight 5:40 AM EET 5:57 PM EET
Astronomical Twilight 5:12 AM EET 6:26 PM EET
Moon 9:44 PM EET (1/2) 9:33 AM EET (1/2)
Length of Visible Light 11h 19m
Length of Day
10h 28m
Waning Gibbous, 78% of the Moon is Illuminated
Jan 2
Waning Gibbous
Jan 5
Last Quarter
Jan 11
New
Jan 19
First Quarter
Jan 27
Full

Hourly Weather History & Observations

Time (EET) Temp. Dew Point Humidity Pressure Visibility Wind Dir Wind Speed Gust Speed Precip Events Conditions
12:00 AM 57.2 °F 44.6 °F 63% 30.09 in - WNW 9.2 mph - N/A   Clear
1:00 AM 59.0 °F 42.8 °F 55% 30.09 in - WNW 11.5 mph - N/A   Clear
2:00 AM 57 °F 44 °F 50% 30.11 in 6 mi WNW 11.5 mph - -  
2:00 AM 57.2 °F 42.8 °F 59% 30.09 in - WNW 11.5 mph - N/A   Clear
3:00 AM 57.2 °F 44.6 °F 63% 30.09 in - NW 13.8 mph - N/A   Clear
4:00 AM 57.2 °F 42.8 °F 59% 30.09 in - WNW 10.4 mph - N/A   Clear
5:00 AM 55.4 °F 41.0 °F 58% 30.09 in - NW 13.8 mph - N/A   Clear
6:00 AM 57.2 °F 41.0 °F 55% 30.12 in - WNW 11.5 mph - N/A   Clear
7:00 AM 57.2 °F 41.0 °F 55% 30.15 in - WNW 13.8 mph - N/A   Clear
8:00 AM 60 °F 42 °F 41% 30.17 in 6 mi WNW 18.4 mph - -   Clear
8:00 AM 60.8 °F 42.8 °F 52% 30.15 in - WNW 18.4 mph - N/A   Clear
9:00 AM 64.4 °F 41.0 °F 42% 30.18 in - NW 17.3 mph - N/A   Clear
10:00 AM 66.2 °F 42.8 °F 43% 30.18 in - NNW 18.4 mph - N/A   Clear
11:00 AM 68.0 °F 42.8 °F 40% 30.18 in - NNW 16.1 mph - N/A   Clear
12:00 PM 69.8 °F 44.6 °F 40% 30.15 in - North 20.7 mph - N/A   Clear
1:00 PM 71.6 °F 44.6 °F 38% 30.12 in - North 19.6 mph - N/A   Clear
2:00 PM 72 °F 43 °F 24% 30.13 in 6 mi North 19.6 mph - -   Clear
2:00 PM 71.6 °F 42.8 °F 35% 30.12 in - North 19.6 mph - N/A   Clear
3:00 PM 71.6 °F 44.6 °F 38% 30.12 in - North 20.7 mph - N/A   Clear
4:00 PM 69.8 °F 44.6 °F 40% 30.12 in - North 19.6 mph - N/A   Clear
5:00 PM 68.0 °F 44.6 °F 43% 30.12 in - North 17.3 mph - N/A   Clear
6:00 PM 66.2 °F 46.4 °F 49% 30.15 in - NNW 13.8 mph - N/A   Clear
7:00 PM 62.6 °F 44.6 °F 52% 30.18 in - NW 15.0 mph - N/A   Clear
8:00 PM 60 °F 36 °F 29% 30.19 in 6 mi WNW 13.8 mph - -   Clear
8:00 PM 60.8 °F 35.6 °F 39% 30.18 in - WNW 13.8 mph - N/A   Clear
9:00 PM 59.0 °F 33.8 °F 39% 30.18 in - WNW 11.5 mph - N/A   Clear
10:00 PM 59.0 °F 33.8 °F 39% 30.18 in - WNW 13.8 mph - N/A   Clear
11:00 PM 59.0 °F 33.8 °F 39% 30.18 in - WNW 9.2 mph - N/A   Clear